Regional Weather Roundup
Issued by NWS

Home | Current Version | Previous Version | Text Only | Print | Product List | Glossary On
Versions: 1 2 3 4 5 6 7 8 9 10 11 12 13 14 15 16 17 18 19 20 21 22 23 24 25 26 27 28 29 30 31 32 33 34 35 36 37 38 39 40 41 42 43 44 45 46 47 48 49 50
000
ASUS44 KMEG 291900
RWRTN
TENNESSEE HOURLY STATE WEATHER ROUNDUP
NATIONAL WEATHER SERVICE MEMPHIS TN
100 PM CST THU JAN 29 2015

TNZ002-004-019-021-049-052-054-088>092-292000-
WEST TENNESSEE

CITY           SKY/WX    TMP DP  RH WIND       PRES   REMARKS
MEMPHIS INTL   CLOUDY    63  42  46 NW12G24   30.11S
NWS MEMPHIS      N/A     62 N/A N/A MISG        N/A
JACKSON        PTSUNNY   64  42  44 NW15      30.07S
DYERSBURG      CLOUDY    57  34  41 NW13G21   30.13R
UNION CITY     CLOUDY    52  39  62 NW17      30.10R
PARIS          PTSUNNY   55  39  54 N17       30.06S
LEXINGTON      PTSUNNY   64  43  45 W15       30.03F
SAVANNAH       MOSUNNY   63  45  51 SW10      30.06F
$$

TNZ008-025-027-028-033-062-065-066-292000-
NORTH MIDDLE TENNESSEE

CITY           SKY/WX    TMP DP  RH WIND       PRES   REMARKS
NASHVILLE      PTSUNNY   65  41  41 W14G25    30.01F
CLARKSVILLE    PTSUNNY   60  42  51 N23       30.02S
COOKEVILLE     SUNNY     61  39  44 SW16      30.00F
CROSSVILLE     SUNNY     56  35  45 SW13G25   30.01F
$$

TNZ061-075-076-078-094-096-097-292000-
SOUTH MIDDLE TENNESSEE

CITY           SKY/WX    TMP DP  RH WIND       PRES   REMARKS
FAYETTEVILLE   SUNNY     57  39  51 MISG      30.06F
TULLAHOMA      SUNNY     59  37  44 SW17      30.05F
WINCHESTER     SUNNY     59  39  47 SW15      30.06F
COLUMBIA       SUNNY     64  45  48 W10       30.01F
SHELBYVILLE    SUNNY     63  41  45 SW15      30.04F
$$

TNZ017-018-042-046-047-292000-
NORTHEAST TENNESSEE

CITY           SKY/WX    TMP DP  RH WIND       PRES   REMARKS
TRI CITIES     MOSUNNY   42  29  59 CALM      30.03F
ELIZABETHTON   PTCLDY    45  30  57 E5        30.02F
$$

TNZ012-013-036-069-073-074-292000-
CENTRAL EAST TENNESSEE

CITY           SKY/WX    TMP DP  RH WIND       PRES   REMARKS
KNOXVILLE      MOSUNNY   55  35  47 SW21G30   30.03F
OAK RIDGE      SUNNY     52  34  50 SW9G17    30.05F
GATLINBURG     CLEAR     45  32  61 NW3       30.03F
$$

TNZ083-085-099-292000-
SOUTHEAST TENNESSEE

CITY           SKY/WX    TMP DP  RH WIND       PRES   REMARKS
CHATTANOOGA    MOSUNNY   56  32  40 S16       30.08F
$$

SKY/WX REPORTED AS FAIR MEANS FEW OR NO CLOUDS BELOW
12 THOUSAND FEET.




USA.gov is the U.S. government's official web portal to all federal, state and local government web resources and services.